Location: Newark
(42.8481°N, 0.4872°E)
Time: 23:43:54
(UTC+00:00)

Transit 2A Rocket - Pass Details

Date: 30 October 2020
Orbit: 588 x 914 km, 66.7° (Epoch: 29 November)

Event Time Altitude Azimuth Distance (km) Brightness Sun altitude
Rises 07:38:20 0° 167° (SSE) 3,526 9.1 10.5°
Reaches altitude 10° 07:41:28 10° 152° (SSE) 2,596 9.0 11.0°
Maximum altitude 07:45:48 21° 106° (ESE) 1,936 8.9 11.7°
Drops below altitude 10° 07:50:05 10° 60° (ENE) 2,564 8.2 12.3°
Sets 07:53:08 0° 45° (NE) 3,472 8.6 12.8°
